Location: Bonny Doon Airfield
(37.0704°N, 122.1252°W)
Time: 20:45:12
(UTC-07:00)

OTV 5 (USA 277) - Pass Details

Date: 07 October 2017
Orbit: 404 x 417 km, 43.0° (Epoch: 07 September)

Event Time Altitude Azimuth Distance (km) Brightness Sun altitude
Rises 19:07:51 0° 191° (SSW) 2,337 ? -5.9°
Reaches altitude 10° 19:11:50 10° 144° (SE) 1,480 ? -6.7°
Maximum altitude 19:12:10 10° 138° (SE) 1,474 ? -6.8°
Drops below altitude 10° 19:12:30 10° 133° (SE) 1,481 ? -6.8°
Enters shadow 19:13:58 - 110° (ESE) 1,659 ? -7.1°
